Location: Unspecified
(48.7670°N, 0.0000°E)
Time: 04:35:52
(UTC+00:00)

Vanguard 2 Rocket - Pass Details

Date: 05 October 2020
Orbit: 554 x 3326 km, 32.9° (Epoch: 26 October)

Event Time Altitude Azimuth Distance (km) Brightness Sun altitude
Exits shadow 02:54:01 41° 212° (SSW) 3,924 9.6 -31.1°
Maximum altitude 02:59:09 48° 179° (S) 3,854 9.7 -30.4°
Drops below altitude 10° 03:17:45 10° 114° (ESE) 6,159 11.5 -27.7°
Sets 03:22:29 0° 109° (ESE) 7,010 12.0 -27.0°
